Weather History for Wheeler AAF, HI

Change the Weather History Date:

Saturday, December 7, 2013

  Actual Average Record
Temperature  
Mean Temperature 71 °F -  
Max Temperature 80 °F 74 °F 80 °F (2013)
Min Temperature 62 °F 64 °F 58 °F (2010)
Cooling Degree Days 6    
Growing Degree Days 21 (Base 50)    
Moisture  
Dew Point 63 °F    
Average Humidity 78    
Maximum Humidity 92    
Minimum Humidity 55    
Precipitation  
Precipitation 0.00 in - - ()
Sea Level Pressure  
Sea Level Pressure 29.94 in    
Wind  
Wind Speed 3 mph (SSW)    
Max Wind Speed 7 mph    
Max Gust Speed -    
Visibility 10 miles    
Events      
Averages and records for this station are not official NWS values.
T = Trace of Precipitation, MM = Missing Value Source: NWS Daily Summary

Daily Weather History Graph

Daily Weather History Graph

Search for Another Location

Airport:

Trip Planner

Search our weather history database for the weather conditions in past years. The results will help you decide how hot, cold, wet, or windy it might be!

Date:

Astronomy

Dec. 07, 2013 Rise Set
Actual Time 6:57 AM HST 5:50 PM HST
Civil Twilight 6:33 AM HST 6:14 PM HST
Nautical Twilight 6:05 AM HST 6:41 PM HST
Astronomical Twilight 5:38 AM HST 7:09 PM HST
Moon 11:16 AM HST (12/7) 11:14 PM HST (12/7)
Length of Visible Light 11h 40m
Length of Day
10h 52m
Waxing Crescent, 31% of the Moon is Illuminated
Dec 7
Waxing Crescent
Dec 9
First Quarter
Dec 16
Full
Dec 25
Last Quarter
Jan 1
New

Hourly Weather History & Observations

Time (HST) Temp. Heat Index Dew Point Humidity Pressure Visibility Wind Dir Wind Speed Gust Speed Precip Events Conditions
12:58 AM 69.1 °F - 63.9 °F 83% 29.93 in 10.0 mi SE 4.6 mph - N/A   Clear
1:58 AM 68.2 °F - 63.1 °F 84% 29.93 in 10.0 mi SSW 2.3 mph - N/A   Clear
2:58 AM 66.7 °F - 62.2 °F 85% 29.91 in 10.0 mi Calm Calm - N/A   Clear
3:58 AM 64.9 °F - 61.5 °F 89% 29.92 in 10.0 mi WNW 2.3 mph - N/A   Clear
4:58 AM 63.3 °F - 60.4 °F 90% 29.93 in 10.0 mi NW 3.5 mph - N/A   Clear
5:58 AM 62.6 °F - 60.1 °F 91% 29.94 in 10.0 mi WNW 2.3 mph - N/A   Clear
6:58 AM 63.9 °F - 61.3 °F 91% 29.94 in 10.0 mi Calm Calm - N/A   Scattered Clouds
7:58 AM 65.1 °F - 62.6 °F 92% 29.95 in 10.0 mi Calm Calm - N/A   Partly Cloudy
8:13 AM 68.0 °F - 64.4 °F 88% 29.98 in 10.0 mi Calm Calm - N/A   Scattered Clouds
8:58 AM 72.1 °F - 66.4 °F 82% 29.96 in 10.0 mi South 2.3 mph - N/A   Partly Cloudy
9:58 AM 75.6 °F - 65.8 °F 72% 29.97 in 10.0 mi SSW 5.8 mph - N/A   Scattered Clouds
10:58 AM 77.0 °F - 64.9 °F 66% 29.96 in 10.0 mi Variable 5.8 mph - N/A   Clear
11:58 AM 78.4 °F - 62.6 °F 58% 29.94 in 10.0 mi SE 6.9 mph - N/A   Clear
12:58 PM 79.0 °F - 62.4 °F 57% 29.91 in 10.0 mi South 6.9 mph - N/A   Clear
1:58 PM 79.3 °F - 61.7 °F 55% 29.89 in 10.0 mi South 6.9 mph - N/A   Clear
2:58 PM 80.1 °F 81.4 °F 62.6 °F 55% 29.89 in 10.0 mi SE 5.8 mph - N/A   Clear
3:58 PM 79.2 °F - 63.7 °F 59% 29.90 in 10.0 mi Variable 5.8 mph - N/A   Clear
4:58 PM 77.4 °F - 63.3 °F 62% 29.92 in 10.0 mi Variable 4.6 mph - N/A   Scattered Clouds
5:58 PM 74.7 °F - 64.4 °F 70% 29.94 in 10.0 mi Variable 1.2 mph - N/A   Overcast
6:58 PM 72.0 °F - 63.9 °F 76% 29.96 in 10.0 mi NW 1.2 mph - N/A   Clear
7:58 PM 68.0 °F - 63.1 °F 84% 29.97 in 10.0 mi Calm Calm - N/A   Clear
8:58 PM 66.2 °F - 62.6 °F 88% 29.99 in 10.0 mi Calm Calm - N/A   Clear
9:58 PM 63.9 °F - 61.0 °F 90% 29.99 in 10.0 mi WNW 4.6 mph - N/A   Clear
10:58 PM 63.9 °F - 60.8 °F 90% 29.98 in 10.0 mi Calm Calm - N/A   Clear
11:58 PM 63.1 °F - 60.6 °F 91% 29.98 in 10.0 mi ENE 1.2 mph - N/A   Partly Cloudy